When you browse on this site, cookies collect data to enhance your experience and personalize the content and advertising you see.
Visit our Privacy Policy to learn more. By continuing to use the site, you agree to this use of cookies and data.

Hourly Weather Shuklovo

Today, 10 July, Friday

Time Temperature Precipitation Wind Pressure Humidity
00:00 +10°C° 0 mm 2 mps 749 mmHg 91%
01:00 +10°C° 0 mm 2 mps 749 mmHg 91%
02:00 +9°C° 0 mm 2 mps 750 mmHg 91%
03:00 +10°C° 0 mm 2 mps 750 mmHg 89%
04:00 +10°C° 0 mm 2 mps 750 mmHg 87%
05:00 +12°C° 0 mm 2 mps 750 mmHg 85%
06:00 +14°C° 0 mm 2 mps 751 mmHg 76%
07:00 +16°C° 0 mm 2 mps 751 mmHg 68%
08:00 +18°C° 0 mm 2 mps 751 mmHg 60%
09:00 +19°C° 0 mm 2 mps 751 mmHg 55%
10:00 +20°C° 0 mm 3 mps 751 mmHg 51%
11:00 +21°C° 0 mm 3 mps 751 mmHg 46%
12:00 +21°C° 0 mm 3 mps 751 mmHg 46%
13:00 +22°C° 0 mm 3 mps 751 mmHg 46%
14:00 +22°C° 0 mm 3 mps 751 mmHg 46%
15:00 +22°C° 0 mm 3 mps 751 mmHg 49%
16:00 +22°C° 0 mm 3 mps 751 mmHg 52%
17:00 +21°C° 0 mm 3 mps 751 mmHg 55%
18:00 +20°C° 0 mm 2 mps 751 mmHg 61%
19:00 +19°C° 0 mm 2 mps 751 mmHg 66%
20:00 +17°C° 0 mm 2 mps 751 mmHg 72%
21:00 +17°C° 0 mm 2 mps 750 mmHg 70%
22:00 +17°C° 0 mm 3 mps 750 mmHg 67%
23:00 +18°C° 0 mm 4 mps 750 mmHg 65%

Tomorrow, 11 July, Saturday

Time Temperature Precipitation Wind Pressure Humidity
00:00 +18°C° 0 mm 4 mps 750 mmHg 68%
01:00 +17°C° 0 mm 4 mps 750 mmHg 70%
02:00 +17°C° 0 mm 4 mps 750 mmHg 73%
03:00 +17°C° 0.1 mm 4 mps 749 mmHg 78%
04:00 +17°C° 0.1 mm 4 mps 749 mmHg 83%
05:00 +17°C° 0.1 mm 4 mps 749 mmHg 89%
06:00 +17°C° 0 mm 4 mps 749 mmHg 87%
07:00 +18°C° 0 mm 4 mps 749 mmHg 86%
08:00 +18°C° 0 mm 4 mps 749 mmHg 84%
09:00 +20°C° 0 mm 5 mps 749 mmHg 79%
10:00 +22°C° 0 mm 5 mps 749 mmHg 74%
11:00 +25°C° 0 mm 5 mps 749 mmHg 69%
12:00 +26°C° 0 mm 5 mps 748 mmHg 66%
13:00 +27°C° 0 mm 6 mps 748 mmHg 63%
14:00 +29°C° 0 mm 6 mps 748 mmHg 60%
15:00 +28°C° 0.8 mm 6 mps 748 mmHg 68%
16:00 +26°C° 0.8 mm 5 mps 748 mmHg 76%
17:00 +25°C° 0.8 mm 5 mps 748 mmHg 84%
18:00 +23°C° 0.3 mm 4 mps 748 mmHg 87%
19:00 +24°C° 0.3 mm 3 mps 748 mmHg 91%
20:00 +22°C° 0.3 mm 3 mps 748 mmHg 94%
21:00 +21°C° 0 mm 3 mps 749 mmHg 95%
22:00 +20°C° 0 mm 2 mps 749 mmHg 95%
23:00 +20°C° 0 mm 2 mps 749 mmHg 96%

Day after tomorrow, 12 July, Sunday

Time Temperature Precipitation Wind Pressure Humidity
00:00 +18°C° 0 mm 2 mps 749 mmHg 93%
01:00 +17°C° 0 mm 2 mps 749 mmHg 91%
02:00 +16°C° 0 mm 1 mps 750 mmHg 89%
03:00 +16°C° 0 mm 1 mps 750 mmHg 88%
04:00 +16°C° 0 mm 1 mps 750 mmHg 87%
05:00 +16°C° 0 mm 1 mps 749 mmHg 87%
06:00 +18°C° 0.1 mm 1 mps 750 mmHg 80%
07:00 +19°C° 0.1 mm 1 mps 750 mmHg 74%
08:00 +20°C° 0.1 mm 1 mps 750 mmHg 68%
09:00 +20°C° 0 mm 1 mps 750 mmHg 67%
10:00 +20°C° 0 mm 2 mps 750 mmHg 67%
11:00 +20°C° 0 mm 2 mps 750 mmHg 66%
12:00 +20°C° 0 mm 2 mps 750 mmHg 66%
13:00 +20°C° 0 mm 2 mps 750 mmHg 66%
14:00 +20°C° 0 mm 3 mps 750 mmHg 66%
15:00 +19°C° 0 mm 3 mps 750 mmHg 68%
16:00 +19°C° 0 mm 3 mps 749 mmHg 70%
17:00 +19°C° 0 mm 3 mps 749 mmHg 72%
18:00 +18°C° 0 mm 3 mps 749 mmHg 75%
19:00 +17°C° 0 mm 3 mps 749 mmHg 78%
20:00 +16°C° 0 mm 3 mps 749 mmHg 81%
21:00 +16°C° 0.3 mm 3 mps 748 mmHg 83%
22:00 +14°C° 0.3 mm 3 mps 748 mmHg 84%
23:00 +13°C° 0.3 mm 3 mps 748 mmHg 86%

13 July, Monday

Time Temperature Precipitation Wind Pressure Humidity
00:00 +13°C° 0.7 mm 3 mps 748 mmHg 89%
01:00 +13°C° 0.7 mm 3 mps 747 mmHg 93%
02:00 +12°C° 0.7 mm 3 mps 747 mmHg 96%
03:00 +12°C° 0 mm 3 mps 747 mmHg 96%
04:00 +12°C° 0 mm 3 mps 746 mmHg 95%
05:00 +12°C° 0 mm 3 mps 746 mmHg 95%
06:00 +13°C° 0 mm 3 mps 746 mmHg 95%
07:00 +13°C° 0 mm 3 mps 746 mmHg 94%
08:00 +15°C° 0 mm 2 mps 745 mmHg 93%
09:00 +15°C° 0 mm 2 mps 745 mmHg 92%
10:00 +16°C° 0 mm 2 mps 745 mmHg 91%
11:00 +16°C° 0 mm 2 mps 745 mmHg 89%
12:00 +17°C° 0 mm 2 mps 744 mmHg 86%
13:00 +18°C° 0 mm 3 mps 744 mmHg 82%
14:00 +20°C° 0 mm 3 mps 744 mmHg 78%
15:00 +19°C° 0.1 mm 3 mps 743 mmHg 81%
16:00 +18°C° 0.1 mm 3 mps 743 mmHg 84%
17:00 +18°C° 0.1 mm 4 mps 742 mmHg 87%
18:00 +17°C° 0.7 mm 4 mps 742 mmHg 90%
19:00 +16°C° 0.7 mm 3 mps 742 mmHg 92%
20:00 +16°C° 0.7 mm 3 mps 742 mmHg 95%
21:00 +14°C° 1.4 mm 4 mps 741 mmHg 95%
22:00 +14°C° 1.4 mm 4 mps 741 mmHg 96%
23:00 +14°C° 1.4 mm 4 mps 740 mmHg 97%

14 July, Tuesday

Time Temperature Precipitation Wind Pressure Humidity
00:00 +14°C° 1.1 mm 4 mps 740 mmHg 97%
01:00 +14°C° 1.1 mm 4 mps 740 mmHg 97%
02:00 +13°C° 1.1 mm 4 mps 740 mmHg 97%
03:00 +13°C° 0.6 mm 4 mps 739 mmHg 97%
04:00 +13°C° 0.6 mm 4 mps 739 mmHg 97%
05:00 +13°C° 0.6 mm 4 mps 739 mmHg 97%
06:00 +13°C° 0.5 mm 4 mps 739 mmHg 97%
07:00 +13°C° 0.5 mm 4 mps 739 mmHg 97%
08:00 +13°C° 0.5 mm 4 mps 739 mmHg 96%
09:00 +13°C° 1.5 mm 4 mps 739 mmHg 96%
10:00 +13°C° 1.5 mm 4 mps 740 mmHg 96%
11:00 +13°C° 1.5 mm 4 mps 740 mmHg 96%
12:00 +14°C° 0.2 mm 4 mps 740 mmHg 94%
13:00 +14°C° 0.2 mm 4 mps 740 mmHg 93%
14:00 +14°C° 0.2 mm 4 mps 740 mmHg 91%
15:00 +16°C° 0 mm 3 mps 740 mmHg 88%
16:00 +17°C° 0 mm 3 mps 740 mmHg 85%
17:00 +18°C° 0 mm 3 mps 740 mmHg 81%
18:00 +17°C° 0 mm 3 mps 741 mmHg 83%
19:00 +16°C° 0 mm 2 mps 741 mmHg 85%
20:00 +15°C° 0 mm 2 mps 741 mmHg 87%
21:00 +15°C° 0 mm 2 mps 741 mmHg 88%
22:00 +14°C° 0 mm 2 mps 741 mmHg 90%
23:00 +13°C° 0 mm 3 mps 741 mmHg 91%

15 July, Wednesday

Time Temperature Precipitation Wind Pressure Humidity
00:00 +12°C° 0 mm 3 mps 741 mmHg 89%
01:00 +12°C° 0 mm 3 mps 741 mmHg 86%
02:00 +12°C° 0 mm 4 mps 742 mmHg 84%
03:00 +12°C° 0 mm 4 mps 742 mmHg 81%
04:00 +11°C° 0 mm 4 mps 742 mmHg 78%
05:00 +11°C° 0 mm 4 mps 743 mmHg 75%
06:00 +13°C° 0 mm 4 mps 743 mmHg 70%
07:00 +14°C° 0 mm 4 mps 743 mmHg 66%
08:00 +16°C° 0 mm 5 mps 743 mmHg 61%
09:00 +17°C° 0 mm 5 mps 743 mmHg 57%
10:00 +19°C° 0 mm 5 mps 744 mmHg 52%
11:00 +20°C° 0 mm 5 mps 744 mmHg 48%
12:00 +21°C° 0 mm 5 mps 744 mmHg 48%
13:00 +21°C° 0 mm 5 mps 744 mmHg 48%
14:00 +22°C° 0 mm 5 mps 744 mmHg 49%
15:00 +21°C° 0 mm 4 mps 744 mmHg 54%
16:00 +20°C° 0 mm 4 mps 744 mmHg 58%
17:00 +20°C° 0 mm 3 mps 745 mmHg 63%
18:00 +18°C° 0 mm 3 mps 745 mmHg 70%
19:00 +16°C° 0 mm 2 mps 745 mmHg 78%
20:00 +15°C° 0 mm 2 mps 746 mmHg 85%
21:00 +14°C° 0 mm 2 mps 746 mmHg 88%
22:00 +13°C° 0 mm 2 mps 747 mmHg 92%
23:00 +12°C° 0 mm 2 mps 747 mmHg 95%
Show more